Flag for Canada Weather past 2 weeks in Greater Sudbury, Ontario, Canada

Now
39 °F

Clear.


Feels Like: 35 °F
Forecast: 39 / 61 °F
Wind: 6 mph from West

Location: Sudbury

Current Time: Sep 16, 2014 at 6:20:49 AM

Latest Report: Sep 16, 2014 at 5:00 AM


Visibility: 15 mi

Pressure: 30.02 "Hg

Humidity: 100%

Dew point: 39 °F

Location of Greater SudburyLocation

Historic Weather in Greater Sudbury — Graph

°F

Greater Sudbury temperature yesterday

Maximum temperature yesterday: 61 °F (at 4:00 PM)
Minimum temperature yesterday: 46 °F (at 12:00 AM)
Average temperature yesterday: 52 °F

Past Weeks' High & Low Weather Summary

 TemperatureHumidityPressure
High77 °F (Sep 3, 4:00 PM)100% (Sep 1, 4:00 AM)30.38 "Hg (Sep 1, 4:00 AM)
Low37 °F (Sep 12, 2:00 AM)35% (Sep 8, 6:00 PM)29.33 "Hg (Sep 11, 1:00 AM)
Average57 °F84%30.01 "Hg
* Reported Sep 1 4:00 AM — Sep 16 4:00 AM, Greater Sudbury, Weather by CustomWeather, © 2014

Note: Actual official high and low records may vary slightly from our data, if they occured in-between our weather recording intervals... More about our weather records

Advertising

Greater Sudbury weather history for previous 24 hours

 ConditionsComfort  
Time TempWeatherWind HumidityBarometerVisibility
4:00 AM
Sep 16
39 °FClear.6 mph93%30.03 "Hg15 mi
2:00 AM43 °FClear.3 mph93%30.03 "Hg15 mi
1:00 AM43 °FPassing clouds.5 mph93%30.03 "Hg15 mi
12:00 AM43 °FPassing clouds.6 mph93%30.03 "Hg15 mi
11:00 PM
Sep 15
46 °FPassing clouds.5 mph82%30.04 "Hg15 mi
10:00 PM50 °FPassing clouds.5 mph76%30.04 "Hg15 mi
9:00 PM50 °FPassing clouds.3 mph76%30.03 "Hg15 mi
8:00 PM52 °FPassing clouds.3 mph72%30.02 "Hg20 mi
7:00 PM55 °FScattered clouds.3 mph63%30.01 "Hg20 mi
6:00 PM59 °FScattered clouds.9 mph55%30.01 "Hg20 mi
5:00 PM61 °FPartly sunny.9 mph55%30.00 "Hg20 mi
4:00 PM61 °FPartly sunny.9 mph55%30.01 "Hg20 mi
3:00 PM59 °FPartly sunny.13 mph55%30.01 "Hg20 mi
2:00 PM59 °FPartly sunny.14 mph59%30.01 "Hg20 mi
1:00 PM57 °FPartly sunny.13 mph63%30.03 "Hg20 mi
12:00 PM59 °FBroken clouds.12 mph68%30.05 "Hg20 mi
11:00 AM55 °FBroken clouds.14 mph77%30.06 "Hg20 mi
10:45 AM54 °FBroken clouds.10 mph82%30.06 "Hg20 mi
10:00 AM52 °FMostly cloudy.8 mph94%30.07 "Hg15 mi
9:00 AM50 °FCloudy.7 mph100%30.06 "Hg12 mi
8:00 AM48 °FBroken clouds.6 mph100%30.06 "Hg15 mi
7:45 AM48 °FPartly cloudy.3 mph100%30.06 "Hg15 mi
7:00 AM48 °FPassing clouds.6 mph100%30.06 "Hg20 mi
6:00 AM48 °FSprinkles. Passing clouds.6 mph100%30.07 "Hg6 mi
Weather by CustomWeather, © 2014

See weather overviewHow to use our weather pages